SBKPSBCT

Guest
Details From SBKP - Sao Paulo Viracopos
To SBCT - Afonso Pena
Flight Number -
Tags decoded
Created
Modified
Stats Distance 189 nm / 350 km
Max Altitude 0 ft / 0 m
Waypoints 4
Social Downloads 0
Likes 0
Share VATSIM

Download

Looking for another format? Having issues loading an existing format? Contact us
Advertisement - Login to hide

Notes

Requested: SBKP PREGO W1 CTB SBCT

Route

SBKP PREGO CTB SBCT

ID Type Via Altitude Latitude Longitude Leg Dist Tot Dist Heading (true) Name
O SBKP APT - 0 ft / 0 m -23.00738˚ -47.13452˚ - 0 nm - Sao Paulo Viracopos
PREGO FIX - 0 ft / 0 m -23.30183˚ -47.27533˚ 19 nm 19 nm 204° / 204° -
CTB VOR - 0 ft / 0 m -25.53200˚ -49.16767˚ 169 nm 188 nm 217° / 218° CURITIBA VOR-DME
O SBCT APT - 0 ft / 0 m -25.52888˚ -49.17306˚ 0 nm 188 nm 303° / 303° Afonso Pena

Altitude Profile

Advertisement - Login to hide

Weather


0- 5 10 15 20 25 30 35+ Temperature / ° C

Clouds and Precipitation
Forecast for 2018-05-23 06:00 UTC. Updated an hour ago

Ground ~20,000 ft ~40,000 ft Winds

SBKP

Details ICAO SBKP (VCP)
Name Sao Paulo Viracopos
Region Brazil
Timezone America/Sao_Paulo (UTC-3.0)
Stats Elevation 2,170 ft / 661 m (AMSL)
Location -23.007383° -47.134522°
Runways 1
Magnetic Variation 21.248° W

METAR

SBKP 230600Z 12005KT CAVOK 12/09 Q1020

Decode

TAF

TAF SBKP 222200Z 2300/2324 12008KT CAVOK TN10/2309Z TX25/2317Z BECMG 2308/2310 8000 NSC BECMG 2312/2314 CAVOK BECMG 2318/2320 13012KT RMK PGE

Decode

Departure Runways

ID Width Length Bearing (true) Bearing (mag) Surface Threshold Offset Overrun Length
15 148 ft / 45 m 10,639 ft / 3,243 m 127.91° 149.16° Asphalt 0 ft / 0 m 205 ft / 62 m
33 148 ft / 45 m 10,639 ft / 3,243 m 307.90° 329.15° Asphalt 0 ft / 0 m 205 ft / 62 m

SBCT

Details ICAO SBCT (CWB)
Name Afonso Pena
Region Brazil
Timezone America/Sao_Paulo (UTC-3.0)
Stats Elevation 2,988 ft / 911 m (AMSL)
Location -25.528885° -49.173062°
Runways 2
Magnetic Variation 19.674° W

METAR

SBCT 230600Z 21003KT 3000 BR BKN003 11/11 Q1022

Decode

TAF

TAF SBCT 222230Z 2300/2324 12006KT 9999 FEW005 TN07/2309Z TX20/2318Z BECMG 2300/2302 BKN005 PROB40 2306/2312 00000KT 0600 FG BKN001 BECMG 2312/2314 BKN010 BECMG 2314/2316 SCT020 RMK PEB

Decode

Destination Runways

ID Width Length Bearing (true) Bearing (mag) Surface Threshold Offset Overrun Length
11 148 ft / 45 m 5,909 ft / 1,801 m 91.79° 111.46° Asphalt 0 ft / 0 m 0 ft / 0 m
15 148 ft / 45 m 7,290 ft / 2,222 m 134.76° 154.43° Asphalt 0 ft / 0 m 190 ft / 58 m
29 148 ft / 45 m 5,909 ft / 1,801 m 271.78° 291.45° Asphalt 0 ft / 0 m 0 ft / 0 m
33 148 ft / 45 m 7,290 ft / 2,222 m 314.75° 334.42° Asphalt 0 ft / 0 m 185 ft / 56 m

Approach Navaids

Runway Type Ident Frequency Range Bearing (true) Bearing (mag) Slope Elevation
15 Localiser ICT 109.30 MHz 18 nm / 33 km 134.93° 154.60° - 2,990 ft / 911 m (AMSL)
15 Glidescope ICT 109.30 MHz 10 nm / 19 km 134.75° 154.43° 3.04° 2,990 ft / 911 m (AMSL)

Popular Alternatives